Location: Yecla
(38.6122°N, 1.1101°W)
Time: 18:48:06
(UTC+01:00)

ISS - Visible Passes

Search period start: 27 February 2021 00:00
Search period end: 09 March 2021 00:00
Orbit: 417 x 422 km, 51.6° (Epoch: 27 February)

Date Brightness Start Highest point End Pass type
(mag) Time Alt. Az. Time Alt. Az. Time Alt. Az.
27 Feb -1.4 06:25:04 12° NNW 06:25:41 12° NNW 06:27:13 10° NNE visible
28 Feb -1.0 05:39:28 13° N 05:39:28 13° N 05:40:08 10° NNE visible
05 Mar -1.0 06:31:40 10° N 06:33:09 12° NNE 06:34:37 10° NE visible
06 Mar -0.9 05:44:47 10° N 05:45:23 10° N 05:45:59 10° NNE visible
07 Mar -1.5 06:32:50 10° NNW 06:35:25 20° NNE 06:38:01 10° ENE visible
08 Mar -1.1 05:46:08 12° N 05:47:44 15° NNE 05:49:50 10° ENE visible
